Location: Pian di Sc�
(43.6333°N, 11.5500°E)
Time: 17:02:03
(UTC+00:00)

SL-4 R/B - Pass Details

Date: 07 August 2020
Orbit: 428 x 665 km, 51.6° (Epoch: 20 September)

Event Time Altitude Azimuth Distance (km) Brightness Sun altitude
Exits shadow 00:22:13 21° 32° (NNE) 1,053 4.1 -28.3°
Drops below altitude 10° 00:24:06 10° 63° (ENE) 1,533 4.8 -28.2°
Sets 00:26:29 0° 78° (ENE) 2,392 5.7 -28.1°
